Weather History for KD07 - February, 2014

Change the Weather History Date:

Monday, February 24, 2014

  Actual Average Record
Temperature  
Mean Temperature 4 °F 26 °F  
Max Temperature 15 °F 36 °F 55 °F (2005)
Min Temperature -7 °F 16 °F -14 °F (2003)
Degree Days  
Heating Degree Days 61 39  
Month to date heating degree days 1216 1007  
Since 1 July heating degree days 5910 5536  
Cooling Degree Days 0 0  
Month to date cooling degree days 0 0  
Year to date cooling degree days 0 0  
Moisture  
Dew Point -1 °F    
Average Humidity 81    
Maximum Humidity 92    
Minimum Humidity 69    
Precipitation  
Precipitation 0.08 in 0.01 in 0.08 in (2011)
Month to date precipitation 0.59 0.38  
Year to date precipitation 0.79 0.58  
Sea Level Pressure  
Sea Level Pressure 30.42 in    
Wind  
Wind Speed 14 mph (NNE)    
Max Wind Speed 23 mph    
Max Gust Speed 26 mph    
T = Trace of Precipitation, MM = Missing Value Source: NWS Daily Summary

Daily Weather History Graph

Daily Weather History Graph

Search for Another Location

Airport or City:

Trip Planner

Search our weather history database for the weather conditions in past years. The results will help you decide how hot, cold, wet, or windy it might be!

Date:

Astronomy

Feb. 24, 2014 Rise Set
Actual Time 6:34 AM MST 5:28 PM MST
Civil Twilight 6:04 AM MST 5:58 PM MST
Nautical Twilight 5:30 AM MST 6:32 PM MST
Astronomical Twilight 4:56 AM MST 7:06 PM MST
Moon 2:43 AM MST (2/24) 12:23 PM MST (2/24)
Length of Visible Light 11h 53m
Length of Day
10h 54m
Waning Crescent, 27% of the Moon is Illuminated
Feb 24
Waning Crescent
Mar 1
New
Mar 8
First Quarter
Mar 16
Full
Mar 23
Last Quarter

Hourly Weather History & Observations

Time (MST) Temp. Windchill Dew Point Humidity Pressure Visibility Wind Dir Wind Speed Gust Speed Precip Events Conditions
12:56 AM 15.1 °F 2.5 °F 9.0 °F 77% 30.33 in - East 10.4 mph - N/A   Unknown
1:56 AM 14.0 °F -0.8 °F 10.0 °F 84% 30.30 in - East 13.8 mph - 0.01 in   Unknown
2:56 AM 12.0 °F -2.7 °F 8.1 °F 84% 30.29 in - East 12.7 mph - N/A   Unknown
3:56 AM 10.9 °F -4.1 °F 8.1 °F 88% 30.29 in - East 12.7 mph - 0.01 in   Unknown
4:56 AM 10.0 °F -6.5 °F 6.1 °F 84% 30.27 in - East 15.0 mph - 0.01 in   Unknown
5:56 AM 8.1 °F -9.6 °F 5.0 °F 87% 30.25 in - East 16.1 mph - 0.01 in   Unknown
6:56 AM 7.0 °F -10.4 °F 3.0 °F 84% 30.28 in - ENE 15.0 mph - N/A   Unknown
7:56 AM 5.0 °F -12.3 °F 1.0 °F 84% 30.30 in - ENE 13.8 mph - 0.01 in   Unknown
8:56 AM 3.9 °F -17.1 °F -0.0 °F 84% 30.32 in - ENE 20.7 mph - 0.01 in   Unknown
9:56 AM 5.0 °F -14.7 °F -0.9 °F 76% 30.32 in - NE 18.4 mph - 0.01 in   Unknown
10:56 AM 3.9 °F -17.1 °F -2.0 °F 76% 30.37 in - NNE 20.7 mph - N/A   Unknown
11:56 AM 3.9 °F -16.6 °F -2.0 °F 76% 30.40 in - North 19.6 mph - 0.01 in   Unknown
12:56 PM 5.0 °F -15.7 °F -2.0 °F 73% 30.43 in - North 20.7 mph - N/A   Unknown
1:56 PM 6.1 °F -13.8 °F -0.9 °F 73% 30.45 in - North 19.6 mph - N/A   Unknown
2:56 PM 6.1 °F -13.3 °F -2.0 °F 69% 30.48 in - North 18.4 mph 25.3 mph N/A   Unknown
3:56 PM 5.0 °F -13.0 °F -2.9 °F 70% 30.51 in - NNW 15.0 mph - N/A   Unknown
4:56 PM 5.0 °F -10.8 °F -2.0 °F 73% 30.53 in - NNW 11.5 mph - N/A   Unknown
5:56 PM 1.9 °F -13.8 °F -4.0 °F 76% 30.55 in - NW 10.4 mph - N/A   Unknown
6:56 PM -2.0 °F -18.7 °F -8.0 °F 76% 30.57 in - NW 10.4 mph - N/A   Unknown
7:56 PM -5.1 °F -20.4 °F -9.0 °F 83% 30.58 in - WNW 8.1 mph - N/A   Unknown
8:56 PM -6.0 °F -21.5 °F -11.0 °F 79% 30.58 in - West 8.1 mph - N/A   Unknown
9:56 PM -6.0 °F -21.5 °F -11.0 °F 79% 30.58 in - West 8.1 mph - N/A   Unknown
10:56 PM -5.1 °F -19.1 °F -9.9 °F 80% 30.57 in - West 6.9 mph - N/A   Unknown
11:56 PM -5.1 °F -19.1 °F -9.9 °F 80% 30.56 in - West 6.9 mph - N/A   Unknown